sat.trackr.live / text

‹ back to catalog

BANGABANDHUSAT-1

NORAD 43463 · 2018-044A

PAYLOAD ACTIVE UNKNOWN

§ Identity

Operator
Country
BGD
Launch date
2018-05-11
Launch site
AFETR
Launch vehicle
Mass (kg)
RCS (m²)

Purposes: comms

External: N2YO · Heavens-Above · Gunter

§ Orbital elements

Epoch: 2026-09-12T00:47:04.752096Z

Period
1,436.09 min
Inclination
0.0194°
Eccentricity
0.0002286
Mean motion
1.00272554 rev/d
Perigee alt
35,776.7 km
Apogee alt
35,796.0 km
Semi-major
42,164.5 km
B*
0.0000e+0
RAAN
121.5482°
Arg perigee
58.5080°
Mean anomaly
301.8637°
Rev number
3,058

§ Raw data

BANGABANDHUSAT-11 43463U 18044A   26255.03269389 -.00000378  00000+0  00000+0 0  99942 43463   0.0194 121.5482 0002286  58.5080 301.8637  1.00272554 30583

JSON: /api/v1/satellites/43463 · /tle

For live sub-satellite position, see the globe view (requires WebGL).

§ Visibility from observer

Set your observer location to see the next 7 days of passes ≥ 10°. The values pass through the URL so the page stays shareable.

No JS? Fill the form by hand. The geolocation button needs JavaScript.